User: anonymous   Login
Location: Caltech
(34.1382°N, 118.1253°W)
Time: 06:37:46
(UTC-07:00)
Language:

Iridium 75 - Orbit

View from above orbital plane
View from above orbital plane
View from above satellite
View from above satellite

Ground track
Ground track

The orbit data is extracted from the following two-line orbital elements,

1 25346U 98032E   15184.51938642  .00000024  00000-0  15459-5 0  9994
2 25346 086.3981 162.8446 0002328 087.8528 051.9779 14.34214820897237
Epoch (UTC): 03 July 2015 12:27:54
Eccentricity: 0.0002328
inclination: 86.3981°
perigee height: 776 km
apogee height: 779 km
right ascension of ascending node: 162.8446°
argument of perigee: 87.8528°
revolutions per day: 14.34214820
mean anomaly at epoch: 51.9779°
orbit number at epoch: 89723

The dashed part of the orbit path shows where the satellite is in the earth's shadow,  

DLR